Wind_Speed
17 18 18 19 19 19 19 18 18 18 19 19 19 20 20 20 19 18 18 18 18 18 18 18 18 17 17 18 17 16 15 14 12 9 5 2 1 2 5 8 12 14 16 17 17 15 11 8 7 7 10 16 24 31 35 35 34 32 33 34 36 39 40 41 43 46 49 50 49 49 49 50 51 51 51 48 44 42 43 45 47 48 47 44 40 38
18 18 17 18 18 18 18 18 18 18 18 19 20 21 21 21 20 18 17 17 16 16 16 16 17 17 18 17 16 15 15 14 13 10 5 2 2 3 4 7 10 12 14 16 17 15 11 9 8 8 9 14 20 28 33 35 33 32 31 32 34 35 36 37 40 44 49 52 53 53 52 51 50 51 51 48 45 43 43 45 47 47 45 41 37 35
17 17 16 17 17 17 17 18 18 18 18 19 20 21 22 22 20 17 16 14 14 15 15 16 17 18 18 17 15 14 15 14 13 10 6 3 1 2 3 5 8 10 13 15 16 14 11 10 10 9 10 13 18 25 31 34 33 31 31 32 32 33 34 35 37 41 46 50 53 54 54 51 50 51 51 49 46 43 42 43 42 42 41 39 36 35
17 16 16 16 16 17 17 17 18 18 18 18 19 20 21 20 18 16 15 14 14 15 15 16 16 17 18 16 14 14 14 14 13 11 7 4 2 2 2 3 6 10 13 15 16 14 11 11 11 10 10 13 18 23 28 32 33 32 31 32 33 33 33 34 35 37 40 44 47 50 51 50 50 51 50 48 45 43 42 41 40 38 38 38 37 36
17 16 16 16 16 17 17 17 17 17 18 18 18 19 19 19 17 16 15 14 14 14 15 15 15 16 16 16 14 13 14 14 14 12 9 6 5 4 3 3 6 10 13 14 15 14 11 11 12 11 10 13 18 23 27 31 32 32 32 34 34 34 34 35 35 36 37 40 43 47 49 49 50 50 49 47 45 42 41 40 40 39 37 37 37 36
17 16 15 15 16 16 17 16 16 16 17 17 18 18 18 18 17 16 15 15 14 14 15 15 16 15 15 15 14 13 13 14 14 12 10 8 6 5 5 5 6 10 13 14 15 14 11 11 12 11 10 12 17 22 27 30 32 33 33 35 36 36 35 36 36 37 37 38 41 45 48 48 48 48 47 46 44 42 40 38 39 40 37 36 36 36
17 16 15 15 15 16 16 16 15 15 16 17 18 18 18 17 16 15 15 15 15 15 16 16 16 15 14 14 13 13 13 13 13 12 10 9 7 7 7 7 7 10 13 15 16 15 12 11 12 12 10 11 16 22 26 30 33 34 34 35 37 37 35 35 36 36 36 37 38 41 45 46 46 46 44 43 43 42 40 37 37 39 38 36 35 35
17 16 15 15 15 15 15 15 14 14 15 16 17 18 17 16 15 15 15 16 15 15 14 16 16 14 13 12 11 11 12 12 12 11 10 8 7 8 9 9 9 10 13 15 17 17 14 11 11 12 10 10 15 21 25 29 33 34 34 35 36 36 34 33 34 35 35 35 36 37 40 42 44 44 43 41 41 42 41 37 36 37 38 37 35 35
16 16 15 14 14 15 15 14 14 14 14 15 16 16 16 15 15 15 15 15 14 13 13 14 16 15 13 10 9 9 10 11 11 11 10 8 7 9 11 10 10 11 13 16 18 18 15 11 9 10 11 10 12 18 23 27 31 33 34 35 36 35 32 32 33 35 35 35 36 37 38 40 43 44 43 41 40 41 41 38 35 35 36 37 36 36
16 15 14 14 13 14 13 14 14 15 15 15 15 14 13 14 15 16 16 15 14 14 13 14 15 16 14 11 8 8 9 10 10 10 9 7 7 10 12 11 10 10 13 16 19 18 15 9 8 10 11 10 10 15 21 25 27 31 34 35 36 35 32 32 33 35 35 35 36 36 38 40 41 42 42 40 40 40 41 38 35 34 35 36 37 36
15 14 13 13 13 13 13 13 14 15 15 15 14 12 11 12 13 14 15 15 15 15 15 15 15 15 15 13 10 8 8 9 9 9 8 7 8 10 12 13 12 11 12 16 19 19 14 8 8 10 11 10 9 12 18 23 25 28 32 35 36 36 33 33 34 36 37 36 36 36 37 39 41 41 41 40 39 40 41 38 36 34 35 36 37 37
14 13 12 12 12 13 13 13 13 14 14 13 12 12 12 13 13 13 13 14 15 16 16 17 17 16 16 15 13 10 8 8 8 8 8 7 7 10 12 12 12 12 13 16 18 18 13 7 7 10 11 10 8 9 16 22 24 26 29 33 36 36 35 35 35 35 36 36 36 35 37 39 41 42 42 40 40 41 41 40 38 36 35 36 37 38
13 12 11 11 12 12 12 12 12 13 13 12 11 11 12 14 14 14 13 14 14 15 16 17 17 18 17 14 12 10 9 8 8 8 9 8 6 7 10 11 12 13 14 15 18 18 13 6 6 9 11 10 7 9 14 21 24 25 26 30 34 36 36 35 35 35 35 35 35 35 37 39 42 44 44 43 42 43 44 43 41 39 37 36 36 37
12 12 11 11 11 11 11 11 11 11 12 12 11 12 13 14 15 15 14 13 14 15 15 15 16 17 16 13 10 8 7 6 7 8 9 9 7 6 8 10 12 13 14 15 17 17 14 7 6 8 9 9 6 8 15 21 24 24 24 28 32 35 36 36 35 35 34 34 33 34 36 38 42 45 47 45 45 45 46 45 44 41 38 36 35 36
12 11 10 9 9 10 10 10 11 11 12 12 13 13 14 14 15 14 13 13 14 14 15 14 15 15 13 7 7 9 8 6 5 6 8 9 7 7 9 11 13 13 13 14 15 16 15 9 5 7 9 8 6 7 14 21 25 25 24 25 29 33 36 37 37 36 35 34 33 33 34 35 39 42 46 46 47 47 47 46 45 43 40 37 35 34
11 10 9 8 9 10 10 10 11 12 13 13 13 13 13 14 14 14 13 13 13 13 13 13 13 11 7 4 9 13 14 12 10 9 9 10 8 6 9 13 14 14 13 14 15 16 16 12 6 6 8 8 8 7 10 17 24 26 23 23 26 31 35 38 39 39 38 37 35 33 33 34 36 38 42 44 46 47 47 46 45 45 43 40 36 33
11 10 10 9 9 10 10 11 11 12 13 13 13 13 13 13 14 14 13 12 12 11 11 10 7 4 5 7 11 15 18 18 16 13 11 12 10 6 9 13 14 14 14 14 15 16 16 13 8 5 6 8 9 7 7 12 20 26 25 23 23 27 33 36 39 41 41 39 37 34 33 33 34 36 38 40 42 44 45 45 44 45 46 44 39 34
12 11 10 10 10 10 11 11 11 12 13 13 13 14 14 14 14 13 12 11 10 10 9 9 6 4 3 5 8 13 19 19 18 15 13 12 11 7 7 12 15 15 13 13 14 16 16 14 9 5 5 7 8 7 5 9 17 23 25 23 23 24 28 32 36 39 42 42 39 37 35 34 33 34 35 37 38 40 41 41 41 41 44 44 40 35
12 11 11 10 11 11 11 11 11 12 12 13 14 14 14 14 14 13 12 10 10 9 10 9 8 7 7 9 12 17 20 19 17 14 12 11 11 8 5 9 13 15 14 14 14 15 16 16 13 8 5 6 7 6 4 7 12 18 23 25 24 24 26 28 30 34 38 41 42 40 38 36 35 34 34 35 36 37 38 38 38 39 39 39 37 35
12 12 11 11 11 12 12 11 11 12 13 14 15 15 14 14 14 13 11 10 10 10 10 10 9 10 11 12 16 19 21 19 16 12 10 10 10 8 5 6 10 14 15 15 14 14 15 17 16 12 8 7 7 5 4 6 8 12 17 22 25 26 26 27 27 29 32 36 39 41 41 39 38 36 35 36 36 36 36 36 36 36 35 34 34 35
13 13 12 12 12 12 12 12 12 13 14 15 15 14 14 14 13 12 12 11 11 11 12 11 11 12 13 15 18 21 20 18 13 9 7 7 8 7 6 5 8 13 15 16 15 14 13 15 16 15 11 8 7 5 4 5 6 7 10 15 22 26 26 27 27 27 28 30 33 36 38 40 40 38 37 37 37 37 36 36 35 34 33 32 33 36
13 14 14 13 13 13 13 14 14 15 15 15 14 13 13 13 13 13 13 12 12 12 12 13 13 15 16 18 22 23 20 16 12 8 5 5 7 8 8 5 7 12 15 15 15 14 13 13 15 15 13 9 7 5 4 6 6 5 6 9 15 22 26 26 26 26 27 27 28 31 33 36 39 40 39 39 38 38 37 36 35 34 33 32 33 36
14 14 14 14 13 13 14 14 15 15 14 14 13 13 13 14 14 14 13 13 13 13 14 15 17 18 19 20 21 21 18 15 12 8 5 3 5 8 10 4 6 12 15 16 16 15 13 12 13 15 14 10 7 5 4 7 8 5 3 5 10 16 22 24 24 23 25 25 27 28 30 32 35 38 40 40 39 39 38 38 37 36 34 33 32 35
14 14 14 14 14 14 14 14 14 14 14 13 13 14 15 15 16 16 15 14 13 14 15 16 16 16 16 17 17 17 15 11 8 6 5 4 5 8 9 6 2 10 16 17 17 16 14 12 12 13 14 10 7 6 3 7 8 6 2 3 7 12 18 21 21 21 21 23 25 27 28 29 31 35 38 39 39 39 38 38 38 37 35 34 33 34
14 14 14 14 15 15 15 15 15 15 14 14 14 15 16 16 16 15 14 13 12 12 12 13 13 13 13 13 13 11 9 9 8 6 5 5 6 8 8 7 3 4 11 16 18 17 15 13 12 13 13 11 9 7 5 6 8 7 4 3 6 11 16 19 20 20 20 20 23 25 27 28 29 31 34 36 37 38 37 37 37 37 36 36 35 34
15 15 15 15 16 16 16 16 16 15 15 15 15 15 15 15 15 13 12 11 10 10 10 10 10 10 11 10 9 8 9 11 12 10 8 5 5 6 7 8 7 4 3 12 18 19 17 15 14 14 14 13 12 10 8 6 8 8 6 4 5 9 15 18 19 19 20 20 21 24 26 27 27 29 32 34 35 36 36 36 36 35 35 35 35 34
15 15 15 15 15 15 15 15 15 14 14 14 14 14 14 14 12 11 10 9 9 9 9 7 6 7 8 8 7 9 11 11 12 13 11 7 6 5 6 7 8 7 3 7 15 19 19 17 16 15 16 16 15 14 11 8 8 9 7 5 5 6 11 16 18 18 19 19 21 23 25 26 26 27 30 32 34 35 35 34 34 33 33 33 33 33
14 13 13 13 13 13 13 13 13 13 12 12 12 12 12 11 10 9 9 9 9 9 8 6 5 5 4 6 8 10 12 9 10 14 13 8 5 4 5 7 8 8 5 5 11 17 18 18 17 17 16 18 18 17 14 11 9 9 8 7 6 5 8 12 15 17 17 18 20 22 23 24 25 26 28 31 33 34 34 33 33 32 31 31 31 31
13 13 13 12 12 12 12 12 11 11 11 11 11 10 9 8 7 8 8 9 9 9 8 7 7 6 5 8 10 10 8 5 9 15 14 9 5 5 6 6 7 8 6 4 7 12 14 16 17 16 16 18 20 19 17 14 11 9 8 8 8 6 6 8 11 14 16 17 19 21 23 23 24 26 28 30 32 32 33 32 32 31 30 29 29 30
13 13 13 12 12 11 11 11 10 10 10 9 9 8 7 7 7 7 8 8 8 8 8 8 8 8 8 8 7 5 2 3 10 15 16 10 5 5 7 7 7 7 6 3 3 5 7 12 16 17 16 18 19 19 18 16 14 12 10 9 9 7 6 6 8 11 15 16 18 20 22 23 23 25 27 29 31 32 32 32 31 30 28 27 27 28
13 13 12 12 11 11 10 10 10 10 10 9 8 8 7 6 6 7 7 7 7 7 7 8 8 8 8 5 2 1 1 5 11 16 17 11 6 5 8 7 7 7 7 4 1 1 3 7 12 16 17 17 18 18 18 17 16 14 12 11 10 8 6 5 6 9 12 14 17 19 20 21 22 23 26 28 30 31 32 32 30 28 26 25 25 26
13 12 12 11 11 11 10 10 10 10 10 9 8 8 7 7 7 7 7 7 7 7 7 8 8 8 8 5 4 3 2 6 12 16 17 11 6 6 8 7 8 8 7 5 3 0 2 2 7 13 17 18 18 17 18 17 17 16 15 14 12 9 7 6 6 7 9 11 14 16 18 20 21 22 24 27 30 31 32 32 30 27 25 25 25 26
12 12 11 11 11 11 10 10 10 10 9 9 9 8 8 8 8 8 8 8 8 8 8 8 8 8 8 8 7 7 7 9 12 14 15 11 7 5 7 7 8 9 7 6 4 2 1 1 4 9 15 18 18 17 16 17 17 18 17 15 13 11 8 7 6 7 8 9 11 13 15 17 19 20 23 26 29 31 31 30 29 27 26 26 27 27
12 12 11 11 11 11 11 11 10 10 10 10 10 9 9 10 10 9 9 9 8 8 8 9 9 9 8 8 8 9 10 10 11 13 13 11 7 5 8 8 8 8 8 5 4 3 2 1 4 8 12 16 18 17 16 16 17 18 18 16 15 12 9 8 8 8 9 10 11 13 15 17 19 20 23 26 29 30 30 29 28 27 26 27 28 29
12 12 11 11 11 12 11 11 11 11 11 11 11 11 11 11 11 10 10 10 10 9 10 10 10 10 10 9 8 9 10 11 12 13 13 11 9 7 8 7 7 7 7 6 4 3 2 1 4 8 11 13 14 15 16 16 17 17 18 17 15 13 11 10 10 11 11 12 14 16 18 19 21 22 24 26 28 29 29 27 27 27 27 28 29 31
12 12 11 12 12 12 12 12 12 12 12 12 12 12 12 12 12 11 11 11 11 11 11 11 12 13 12 12 12 12 13 15 15 14 14 12 11 8 6 6 6 7 7 6 6 5 3 1 3 8 11 9 10 12 15 16 17 17 17 16 15 13 12 12 13 14 14 14 15 17 20 21 23 24 25 26 27 28 27 27 27 27 28 28 30 32
12 12 12 12 12 12 12 12 12 12 13 13 13 13 13 13 13 13 13 12 12 11 11 12 13 14 14 15 16 16 17 16 15 14 13 13 12 10 8 8 8 8 7 6 6 6 5 3 2 7 10 9 8 10 15 17 18 17 17 16 15 15 14 15 16 16 16 16 17 18 20 22 23 24 25 26 26 27 27 27 28 28 29 30 31 33
12 12 12 12 12 12 12 12 13 13 13 14 15 15 15 14 14 14 13 13 12 12 12 12 13 14 14 15 16 16 16 15 15 14 13 13 12 12 12 12 12 10 8 7 7 7 6 3 0 3 5 8 11 14 17 19 19 18 18 19 19 19 18 19 19 19 19 18 19 20 21 23 24 25 26 27 28 29 29 29 30 30 31 32 33 34
12 12 12 13 13 12 12 12 13 14 15 15 15 15 15 14 14 13 13 12 11 11 11 12 13 14 14 13 13 13 13 13 13 13 13 12 12 12 12 13 13 10 8 7 7 7 6 5 3 1 3 7 11 15 19 20 20 21 22 22 21 20 20 21 21 21 21 21 22 23 24 25 27 28 29 30 31 31 31 32 32 34 35 35 34 34
13 13 13 13 13 13 13 13 14 15 16 16 15 14 14 13 13 13 13 11 11 11 11 11 12 12 11 10 10 10 11 12 12 12 12 12 12 12 12 12 11 9 8 7 7 6 7 6 5 1 7 10 12 14 16 18 21 23 23 20 17 17 20 22 23 24 24 24 25 26 27 28 29 30 30 31 31 32 33 34 35 36 38 38 37 36
14 13 13 13 14 13 13 14 15 15 15 15 14 13 13 13 13 13 13 12 11 11 10 10 10 10 10 9 9 9 9 10 10 9 9 9 10 10 10 10 9 8 7 7 6 6 6 6 3 2 8 12 15 16 16 18 20 22 22 18 17 19 22 24 25 26 27 27 28 29 29 29 29 30 30 30 31 32 34 36 37 38 39 40 40 40
14 14 14 14 14 14 14 15 15 15 14 13 13 12 13 13 13 14 13 13 12 12 11 10 9 9 8 7 7 7 8 9 10 9 7 6 6 6 7 7 6 5 4 5 6 6 5 3 3 5 7 11 14 15 15 16 18 20 21 21 23 23 23 23 24 26 28 28 29 29 29 28 28 28 29 29 29 31 33 35 36 38 38 39 41 43
14 14 14 14 14 14 14 14 14 14 14 13 12 12 13 13 13 13 13 12 12 12 12 11 10 8 7 7 7 8 9 11 11 11 10 7 5 4 3 3 2 1 2 4 6 5 4 6 7 7 7 9 13 14 15 15 17 19 21 24 25 22 17 18 22 26 27 28 28 28 28 28 28 29 30 30 30 30 32 33 35 36 37 38 39 40
14 14 14 14 14 14 14 14 14 14 13 13 13 13 13 14 14 13 13 12 12 12 12 11 10 8 6 7 8 9 10 11 12 12 12 10 7 4 3 2 2 2 1 3 5 4 5 8 9 8 7 9 12 15 16 17 17 18 20 22 23 22 18 19 23 26 27 27 28 28 29 30 31 31 31 31 31 31 31 32 33 34 35 37 38 38
14 14 15 15 14 14 14 14 14 14 13 13 13 13 14 15 14 13 12 12 12 12 11 11 9 7 6 7 8 9 10 12 13 14 14 13 11 8 7 5 4 2 0 1 2 5 7 10 10 9 9 11 13 15 16 17 18 18 18 20 21 22 22 25 27 28 28 29 29 30 31 32 33 32 31 30 29 29 30 31 32 33 35 37 38 40
15 15 15 15 15 15 15 15 15 14 14 14 14 14 14 14 14 13 12 12 12 11 11 10 9 7 7 7 8 9 10 11 13 14 15 15 15 13 12 10 9 8 9 10 11 12 12 12 12 12 12 12 13 13 15 17 18 18 19 21 23 24 25 25 26 27 29 31 32 33 33 34 34 32 29 28 27 27 27 29 30 32 34 36 38 41
16 16 16 16 15 15 15 15 15 15 14 14 14 14 14 14 14 13 13 12 12 11 11 10 9 8 7 8 8 9 9 10 12 13 14 15 15 16 15 14 14 14 15 16 17 17 17 16 15 14 14 13 11 11 12 14 16 18 19 22 24 25 23 22 22 24 28 31 33 34 35 35 34 31 29 27 26 26 25 26 27 29 32 35 37 40
17 16 16 16 15 15 15 15 15 15 14 14 14 15 15 15 14 14 13 12 12 11 10 10 9 8 8 8 9 9 9 9 10 12 13 13 13 14 15 16 17 18 19 19 20 21 21 20 19 18 17 15 12 10 10 11 13 16 19 22 24 24 22 22 22 24 27 29 32 34 35 35 33 31 29 27 26 25 25 24 24 26 29 32 35 37
17 17 17 16 16 15 15 15 15 15 15 15 15 15 15 15 15 14 13 12 12 11 10 10 9 9 8 8 9 10 10 10 10 11 12 12 12 11 11 12 14 16 19 20 21 22 22 23 22 21 20 18 15 12 11 10 12 14 18 21 23 24 23 23 24 26 28 28 29 30 31 32 34 34 32 28 25 24 25 24 23 23 26 29 32 35
17 17 17 17 16 16 15 15 15 15 15 15 15 15 15 15 15 14 13 12 12 11 10 10 9 9 8 8 9 10 10 10 10 11 12 13 12 10 9 8 8 9 12 15 17 19 20 20 21 21 20 18 16 14 12 10 11 14 16 19 22 24 24 24 25 26 27 26 26 26 27 29 31 33 33 30 26 24 24 24 23 23 25 28 31 33
18 18 18 17 17 16 16 15 15 15 15 15 15 14 14 15 15 14 14 13 12 11 10 10 9 9 9 9 9 10 10 11 11 12 13 14 13 12 11 8 6 4 5 7 8 10 10 10 12 15 18 17 16 14 12 10 10 12 13 16 19 23 25 25 25 26 26 25 25 25 26 27 28 30 32 30 27 24 23 22 22 23 26 29 31 33
Wind_Direction
307 307 309 311 312 312 312 314 317 318 318 318 318 317 314 311 305 300 296 293 291 291 292 294 296 297 294 291 288 288 290 291 291 290 289 252 229 296 305 281 273 274 279 282 281 281 289 297 294 267 236 225 220 218 216 216 213 211 210 209 209 209 211 212 216 219 222 221 218 213 208 202 200 203 208 209 208 205 202 200 199 200 200 198 196 197
307 307 308 311 313 313 312 315 317 319 319 318 318 318 316 313 307 301 296 292 289 289 290 291 291 291 289 287 285 285 286 287 287 285 283 278 251 269 302 276 269 271 277 279 278 280 294 314 313 289 257 236 225 220 217 215 212 210 209 208 208 208 209 211 214 219 222 222 219 215 209 204 202 205 210 211 209 206 203 201 200 200 199 198 199 203
308 308 310 313 315 315 313 315 317 318 318 318 318 318 317 314 309 302 296 292 290 290 290 290 291 292 291 289 285 283 283 285 284 281 279 285 263 258 283 264 261 265 273 275 273 276 295 325 328 305 272 245 229 221 217 214 211 209 209 207 205 204 204 206 211 216 219 219 217 213 207 203 203 206 209 209 209 207 204 200 198 198 197 198 201 204
308 309 312 315 315 314 313 313 314 316 317 318 318 317 316 314 310 305 300 297 295 294 293 292 292 293 293 291 287 283 282 283 281 277 274 274 261 248 259 246 250 258 266 270 268 271 293 325 332 315 279 248 230 220 214 210 209 208 209 206 203 200 198 199 202 208 212 212 210 206 202 201 203 206 207 206 205 204 203 200 197 196 196 197 200 202
308 309 313 315 315 313 312 312 313 315 318 319 319 317 315 314 312 311 310 307 303 300 298 296 294 292 292 291 289 285 283 281 277 273 271 266 257 243 225 218 237 249 258 264 264 267 288 323 335 321 283 248 228 218 212 208 207 208 208 205 202 198 195 193 194 196 200 202 201 199 197 198 202 204 205 203 202 202 200 199 198 196 195 197 199 200
307 310 313 315 314 312 312 312 314 317 321 322 320 318 315 315 315 316 317 315 311 307 303 300 297 293 291 289 287 286 284 279 275 271 269 264 251 229 202 195 221 241 250 257 259 263 281 319 335 326 289 248 226 216 210 207 206 206 206 204 202 200 196 192 190 190 193 196 197 197 196 197 200 202 203 202 201 200 198 198 197 196 195 195 196 197
306 309 313 314 313 312 311 311 314 319 324 324 322 319 317 316 317 318 318 317 315 313 309 305 300 296 293 289 285 283 281 277 273 272 272 265 242 213 192 185 205 230 243 252 254 258 273 307 330 329 300 251 225 215 210 206 205 205 203 203 203 202 198 194 190 189 191 195 197 198 198 198 198 199 201 202 201 200 198 196 196 196 195 193 193 194
305 309 313 314 314 313 311 311 315 321 325 323 321 319 318 320 320 320 319 320 320 318 314 311 306 303 299 294 284 278 277 275 274 276 278 267 233 200 189 188 201 221 235 245 249 253 265 294 323 329 310 262 228 214 208 206 205 205 203 202 203 204 201 195 191 189 189 193 197 199 199 199 199 200 202 202 201 200 198 196 194 194 194 192 191 191
303 308 312 314 314 313 312 312 315 320 323 320 317 315 317 322 324 324 323 323 323 321 318 314 312 311 308 302 289 277 274 273 275 279 280 265 225 195 187 188 199 215 227 236 240 246 259 287 319 330 317 281 236 215 207 205 205 206 205 204 204 204 201 195 190 187 186 190 194 197 199 199 200 201 203 203 202 200 199 198 195 193 193 192 191 191
303 307 310 313 313 312 310 311 315 319 320 317 313 311 314 323 328 328 327 324 323 323 321 317 314 312 311 308 298 283 275 275 280 285 280 259 217 194 190 190 195 208 221 228 232 238 252 284 320 330 319 296 252 219 208 205 204 204 204 203 203 203 200 194 189 185 184 186 190 195 198 200 201 202 203 203 201 199 198 198 197 194 193 193 192 192
304 307 310 313 313 311 310 311 314 317 319 318 317 317 322 329 332 330 326 324 323 324 322 318 314 311 309 308 303 291 280 280 288 292 283 255 213 196 195 195 196 203 217 223 226 231 244 280 325 333 320 305 270 226 211 207 204 202 201 201 201 201 198 194 189 186 185 185 187 192 198 202 203 204 204 203 201 198 197 198 199 198 196 195 195 194
305 308 311 313 313 312 312 313 315 319 322 325 326 328 331 333 332 328 323 320 320 321 320 317 314 310 307 304 299 292 283 282 289 293 286 264 222 200 199 200 201 205 214 220 223 227 238 276 333 343 330 315 283 232 213 208 206 202 199 199 199 198 196 194 191 189 188 187 188 191 197 203 206 207 206 204 201 198 197 198 200 201 200 199 198 197
304 307 310 311 312 312 314 316 320 323 326 328 330 330 329 329 327 324 318 316 316 317 317 315 313 311 309 304 297 289 282 280 285 289 284 273 241 207 202 205 206 207 212 217 220 223 232 266 330 344 338 324 287 234 214 209 206 203 199 197 196 196 194 193 192 192 191 191 191 194 198 203 207 208 208 205 201 198 197 200 202 203 203 202 202 201
305 308 310 311 311 312 315 318 321 322 323 324 325 324 323 323 323 322 318 316 316 318 317 315 311 310 311 310 311 312 308 299 292 289 285 275 254 219 206 209 209 207 207 213 217 221 226 250 316 339 337 328 293 232 213 208 206 204 200 196 194 193 193 192 192 192 193 194 196 198 200 202 204 206 206 205 202 199 199 201 203 205 205 204 204 204
306 309 310 310 310 312 315 318 319 319 319 318 319 320 321 322 323 322 320 319 320 321 322 319 315 308 298 319 1 15 17 9 346 319 299 285 267 234 211 209 208 205 202 207 213 217 223 237 289 332 337 322 296 240 212 207 205 203 200 194 191 191 191 191 191 192 194 197 199 200 202 202 201 201 202 202 202 201 202 203 205 207 208 207 207 207
307 309 309 308 309 311 314 317 317 316 315 315 317 319 322 322 322 320 319 319 321 324 326 326 322 312 292 345 18 16 15 11 1 343 320 303 287 246 212 210 207 202 198 201 207 214 219 227 255 313 326 307 290 258 215 205 203 202 199 192 188 188 189 190 191 193 195 197 199 200 200 200 199 198 198 199 199 201 202 204 207 209 211 211 211 211
305 307 307 307 308 310 312 314 314 314 313 313 315 318 320 319 317 315 314 317 321 325 328 328 326 317 314 334 347 353 355 355 350 339 326 312 301 268 217 208 204 200 196 196 203 211 215 220 234 278 306 295 283 265 224 200 198 198 196 191 186 185 187 189 191 193 195 196 198 199 199 198 196 195 195 195 196 198 199 201 204 207 210 211 212 212
305 306 307 307 307 309 311 313 313 313 313 313 315 316 317 316 313 310 311 315 320 325 325 324 320 315 317 317 322 331 338 343 341 332 322 310 304 285 222 205 202 200 193 191 199 207 211 214 225 254 293 298 286 267 232 193 190 193 194 190 185 182 184 186 190 193 195 196 196 197 197 196 195 193 193 193 194 194 195 195 197 201 205 208 210 211
304 305 306 306 307 308 309 310 311 312 313 314 315 315 316 314 312 310 310 316 320 322 320 317 313 309 307 303 306 314 324 331 332 324 314 302 300 294 237 205 199 195 190 189 194 202 208 211 218 234 269 292 288 270 226 183 178 184 190 191 188 183 182 184 188 192 194 195 196 196 196 196 194 193 192 193 193 193 193 192 193 196 201 205 209 209
303 303 303 305 307 307 306 306 308 310 311 311 312 312 313 312 311 311 314 319 321 320 316 312 308 305 304 301 301 306 315 323 324 317 303 292 293 294 265 217 198 193 191 189 190 195 202 208 214 225 244 275 285 271 213 168 161 170 181 187 188 186 182 182 186 190 193 194 195 196 197 196 195 193 192 192 192 191 191 191 192 194 198 201 205 206
302 300 301 304 305 304 302 303 305 307 307 308 309 310 311 311 310 312 316 321 322 319 315 310 306 303 302 298 297 301 310 314 313 307 299 292 293 295 290 248 205 192 188 186 186 189 196 203 210 218 229 258 279 271 206 167 148 144 159 175 184 185 182 181 184 188 192 194 194 195 197 197 196 195 193 193 192 191 190 190 191 193 195 198 200 202
299 298 300 301 300 298 297 299 301 302 304 307 308 310 310 310 310 312 317 320 319 316 311 306 302 298 296 291 293 298 306 303 295 290 291 292 298 308 317 275 208 190 183 180 180 183 189 197 205 212 220 243 269 270 200 171 158 142 139 155 172 180 183 182 182 186 190 193 195 196 197 198 198 197 196 195 194 192 190 189 190 192 193 195 197 198
297 298 299 300 298 295 295 296 298 302 305 308 309 309 307 305 306 310 314 316 313 309 305 302 299 296 293 291 294 301 306 301 290 279 276 278 294 315 336 314 208 190 181 176 173 173 177 187 198 205 211 231 261 271 200 175 170 164 148 153 162 171 180 182 181 182 187 192 196 197 198 199 199 199 198 197 197 195 193 191 191 192 193 194 195 196
300 299 298 297 296 295 295 296 300 305 308 309 308 305 303 302 303 306 308 308 305 302 302 303 303 300 297 294 296 301 309 311 301 281 262 270 292 313 336 344 229 190 181 175 173 173 173 179 187 195 202 217 247 264 215 177 175 178 186 187 169 168 175 180 179 179 184 191 196 198 199 200 200 199 199 199 199 198 197 195 194 194 195 196 197 197
303 301 299 297 296 295 295 297 300 304 306 306 305 303 302 302 304 305 305 303 302 304 308 309 308 304 302 302 301 308 329 348 343 316 286 285 296 310 330 353 360 184 178 174 172 172 172 174 181 189 195 206 226 241 226 183 175 179 201 224 193 177 175 178 178 178 183 190 196 199 200 200 201 200 198 198 199 199 199 198 197 197 197 198 199 200
305 303 301 299 297 295 295 296 297 299 302 302 302 302 304 306 307 307 305 304 308 314 317 313 307 303 304 304 308 319 337 352 354 348 333 317 304 311 332 359 11 21 154 168 170 170 169 170 175 182 189 197 209 222 226 194 177 182 204 240 218 187 177 175 175 178 184 190 196 198 199 200 199 199 198 197 198 198 199 199 199 198 198 199 200 200
309 307 304 302 300 298 299 299 299 299 300 300 301 302 304 308 309 307 304 308 316 321 317 310 304 305 307 309 312 316 323 336 350 356 352 333 307 303 334 1 11 18 56 152 167 170 168 167 168 174 181 187 197 208 217 204 186 187 205 243 244 202 178 173 174 178 185 191 196 198 198 198 198 197 197 197 197 197 198 198 198 198 198 199 199 200
316 314 312 309 307 306 306 306 304 303 303 302 302 303 304 307 306 304 304 312 319 318 311 307 307 311 314 317 313 309 309 323 348 357 359 338 306 296 334 4 12 16 33 122 157 165 166 164 165 168 173 179 186 194 203 202 194 192 205 237 250 224 180 172 172 176 183 190 195 197 197 197 196 196 196 196 196 196 196 197 196 195 196 197 198 199
323 322 320 318 316 315 313 312 310 308 307 307 306 305 305 304 302 301 304 311 314 313 309 309 311 313 313 311 306 299 295 323 355 360 5 347 313 307 340 2 12 15 25 81 139 154 161 162 163 162 162 171 179 185 191 195 193 190 200 229 246 236 189 175 172 175 182 188 192 195 196 196 196 196 196 196 195 195 195 194 194 193 194 195 196 197
327 327 325 324 323 322 321 320 318 317 316 315 313 311 309 305 301 301 303 307 308 307 306 306 308 311 314 312 305 295 290 11 1 357 1 357 336 325 342 349 0 10 20 48 114 139 152 160 159 155 153 163 171 178 184 189 190 189 196 221 238 237 206 183 170 171 179 185 190 193 195 196 197 197 197 196 195 195 194 193 193 192 192 192 192 193
327 327 326 326 326 326 325 324 322 321 321 321 321 320 318 314 309 306 305 303 302 301 301 301 303 307 312 316 315 313 4 3 348 347 354 353 338 323 334 337 346 359 14 15 14 158 146 158 158 154 148 152 160 170 179 187 190 192 198 214 228 232 214 184 162 160 170 180 187 192 194 196 197 198 198 196 195 195 195 194 193 191 189 187 186 186
326 327 327 327 328 328 328 326 324 323 323 323 323 323 322 319 316 311 306 300 298 296 295 295 296 298 301 297 294 295 300 320 327 336 348 346 327 314 327 330 336 347 7 1 346 309 149 150 154 149 141 142 148 159 175 186 192 196 200 209 218 221 208 183 155 145 155 172 183 190 193 195 197 199 199 197 196 195 195 195 193 189 184 180 178 177
327 328 329 330 331 331 330 328 327 325 325 324 324 323 323 322 318 314 306 300 294 290 287 288 290 292 292 288 283 279 281 296 311 327 340 342 330 312 321 328 335 342 353 357 1 10 53 94 137 136 134 137 142 151 164 178 189 196 202 206 210 211 201 182 156 142 148 165 178 186 191 194 197 199 200 198 197 196 196 195 193 188 182 177 172 169
329 330 332 334 335 335 333 332 330 330 329 327 325 324 323 322 320 316 310 303 295 286 281 279 279 283 286 288 284 280 281 289 303 319 331 338 331 309 312 318 331 341 344 348 3 20 32 70 137 135 131 134 141 148 155 163 177 189 198 203 206 203 193 177 159 149 154 167 177 182 186 189 192 195 196 196 196 196 196 195 192 188 183 178 171 165
333 335 338 339 339 337 335 334 333 332 331 329 327 325 324 322 320 316 312 306 299 290 281 274 271 270 273 278 281 281 282 290 301 314 322 327 323 311 311 313 330 343 342 340 345 2 26 23 151 146 136 133 137 145 154 158 166 177 188 197 200 196 185 171 160 156 162 169 174 177 179 182 184 186 189 191 193 194 194 192 190 188 185 180 174 166
337 339 341 341 340 338 336 335 334 333 331 329 328 326 324 322 320 316 312 308 303 295 287 279 272 268 266 266 268 272 279 290 301 309 312 314 312 309 305 303 318 334 342 338 338 347 360 356 148 144 138 132 130 137 147 153 159 164 172 182 186 182 173 166 161 160 162 164 165 167 170 173 176 178 181 185 187 188 188 186 185 183 180 177 173 168
341 341 342 342 341 339 336 335 333 332 330 328 327 326 324 322 320 317 314 311 307 301 294 287 280 275 270 268 269 273 280 291 301 307 308 308 306 299 288 287 299 313 325 326 330 334 336 334 143 142 139 138 136 135 137 143 146 149 153 161 163 161 159 160 160 160 160 157 155 156 160 163 166 168 171 174 176 177 176 176 175 174 171 168 166 163
344 343 342 342 340 338 336 334 332 330 328 326 325 324 324 322 320 319 318 316 312 307 301 294 289 285 282 279 278 282 289 297 306 312 313 309 302 293 283 282 287 294 303 310 317 320 319 318 229 147 143 142 141 140 141 141 139 136 136 142 146 148 149 153 157 158 157 154 151 149 150 153 155 156 157 159 161 160 159 159 160 161 159 157 155 153
344 342 341 340 339 336 333 331 329 328 327 325 324 324 324 323 323 324 323 321 317 311 304 297 293 292 292 292 293 296 302 311 318 322 320 313 304 294 284 281 283 289 299 308 314 314 307 304 300 228 143 138 138 140 143 144 140 134 130 129 131 134 140 146 150 151 152 150 146 142 141 142 144 145 146 148 149 148 146 146 148 150 150 147 144 143
343 341 340 338 336 333 330 328 327 327 327 326 325 326 328 329 331 333 334 330 324 319 312 306 303 302 305 309 313 316 320 325 327 326 320 311 303 294 285 280 280 288 300 308 313 310 299 295 296 232 149 143 141 141 143 144 143 140 134 127 121 121 127 135 139 142 145 145 141 136 134 135 136 137 138 140 142 143 143 143 145 147 148 145 140 136
342 341 338 336 334 331 330 329 329 329 328 328 329 331 334 337 338 338 340 338 334 330 325 321 317 316 317 321 327 333 337 342 342 336 327 313 301 292 285 277 278 287 301 313 322 320 307 301 306 129 142 142 140 138 139 142 145 144 139 133 125 120 121 127 132 136 138 138 137 134 131 130 130 131 132 134 137 140 143 144 144 146 149 149 146 142
342 340 337 334 332 331 331 332 333 334 334 334 335 337 340 342 343 341 340 338 337 336 335 333 328 323 320 322 334 352 6 15 20 19 9 345 314 295 285 276 274 282 303 322 330 333 335 3 66 98 124 135 136 134 134 137 140 140 137 131 124 119 117 120 127 132 132 131 131 131 129 126 125 126 128 130 132 136 140 143 144 145 146 147 148 148
341 339 336 334 333 333 334 336 338 340 341 341 342 343 345 347 346 343 340 337 335 335 336 336 334 329 329 336 347 1 15 26 32 33 31 23 3 330 303 286 274 280 312 325 329 342 33 80 86 85 99 124 131 131 129 127 128 130 131 132 128 121 115 117 123 127 127 127 127 128 127 126 125 126 127 129 131 134 137 139 141 143 144 145 146 147
340 339 338 337 337 339 342 344 344 344 344 345 346 347 348 350 349 346 342 338 337 337 338 339 338 336 340 346 350 355 6 22 34 40 42 41 38 30 24 29 39 37 355 315 314 338 60 84 88 88 97 114 124 127 126 124 124 126 129 132 132 130 130 129 128 126 125 126 128 129 130 129 128 127 127 128 130 132 135 137 138 140 143 145 146 147
343 344 343 343 344 345 347 348 347 347 348 349 349 350 350 351 351 349 346 342 341 341 342 344 345 348 353 355 354 355 360 11 25 36 43 49 57 68 78 84 82 77 83 84 84 84 82 79 82 90 100 107 115 122 125 126 126 126 127 128 127 126 126 130 132 131 130 129 129 130 131 132 130 127 123 122 123 126 130 134 136 139 142 145 147 148
349 350 349 349 349 349 350 349 349 350 351 353 353 352 352 352 352 351 349 347 346 345 347 351 356 1 2 358 356 356 358 4 12 22 33 44 56 70 85 98 110 117 117 110 104 100 94 88 89 94 97 96 100 109 119 124 125 124 123 123 121 121 123 127 131 134 134 133 132 131 132 133 130 124 117 114 115 119 124 129 134 138 142 146 148 150
352 353 353 352 351 351 351 352 352 353 354 354 355 354 354 353 353 353 353 353 352 352 353 357 2 7 8 4 1 358 358 360 4 10 20 31 45 59 72 87 99 105 106 104 101 97 94 93 95 97 95 90 85 89 101 114 120 122 123 123 123 122 121 123 128 133 135 134 133 134 135 134 129 122 115 112 111 111 116 122 129 136 141 145 147 150
353 354 355 354 353 352 353 354 354 355 354 354 354 355 355 355 356 356 356 357 358 359 360 1 3 7 8 8 5 3 3 3 3 6 12 20 33 48 63 76 86 93 98 100 99 97 94 92 91 90 87 81 76 76 84 99 111 120 124 126 125 123 120 122 127 131 132 133 134 136 137 135 130 124 119 113 107 104 106 111 120 129 137 142 145 148
355 356 356 356 355 355 354 354 355 356 355 354 354 354 356 357 359 360 359 360 1 3 4 4 5 6 7 5 5 5 6 6 7 8 10 14 22 35 51 67 78 85 90 94 95 95 93 90 86 83 80 76 71 68 75 89 104 116 122 125 125 123 121 122 126 129 131 132 133 136 137 137 135 133 128 118 107 101 101 104 110 120 130 137 141 144
356 357 358 358 357 356 355 354 355 355 355 354 354 354 355 358 360 1 2 3 5 6 6 6 7 7 7 6 6 6 6 7 7 8 8 11 16 22 30 46 65 79 85 90 91 90 87 80 78 78 79 77 72 66 66 79 99 111 116 120 124 125 124 124 126 128 130 131 132 133 133 133 135 135 131 123 113 106 102 102 105 113 123 131 135 138
357 358 359 360 359 357 356 355 355 355 355 355 355 355 357 360 1 2 4 6 7 7 5 7 9 9 9 8 8 9 10 11 9 6 5 9 12 15 17 22 34 61 85 93 94 91 85 74 68 65 64 69 70 68 69 76 93 104 108 116 122 125 125 125 126 128 128 128 129 130 130 131 132 133 131 126 120 113 108 106 106 110 119 125 129 131
Height
714 712 710 709 707 705 703 702 700 699 697 696 694 692 691 689 688 686 685 684 683 682 681 680 678 677 676 675 674 673 672 672 671 670 670 670 670 671 672 672 672 671 670 670 670 669 669 668 668 669 669 672 674 675 676 678 679 680 682 683 685 687 689 691 694 697 700 703 706 709 711 712 715 719 723 725 727 729 732 734 737 740 743 744 746 748
714 712 710 709 707 705 703 701 700 699 698 696 694 692 690 689 687 686 684 683 682 682 681 679 678 677 675 674 673 672 671 671 670 669 669 669 669 670 671 671 670 670 669 669 669 669 669 668 668 668 669 671 672 673 675 676 678 679 681 682 684 685 687 689 692 695 698 701 704 707 709 711 714 718 722 724 726 729 732 734 736 739 741 743 745 747
713 711 709 708 707 705 703 701 700 699 698 696 694 692 690 689 687 685 684 683 682 681 680 679 677 676 674 673 672 671 670 670 669 669 668 668 668 669 670 670 670 670 669 669 669 670 669 668 668 669 669 670 671 672 673 675 676 678 680 681 682 684 685 687 690 693 696 699 701 704 708 710 714 717 720 722 725 728 730 733 735 738 740 742 744 746
713 711 709 708 707 705 704 702 700 699 697 696 694 692 690 688 686 685 683 682 681 679 679 678 676 675 673 672 671 670 670 669 669 668 667 667 668 669 669 669 670 669 669 669 669 669 669 668 668 668 669 669 670 671 672 674 675 677 679 680 682 683 684 687 689 693 695 698 700 703 706 709 713 716 719 721 723 726 729 731 734 737 740 741 743 744
713 711 709 708 706 705 703 702 700 699 697 695 694 692 690 688 686 684 683 681 680 679 678 676 675 674 673 671 670 669 669 669 668 667 667 667 667 668 668 669 669 668 668 669 669 669 668 667 667 667 668 669 669 670 671 673 675 677 679 680 681 683 684 686 689 692 695 698 700 703 706 709 712 715 717 719 722 725 728 730 733 736 739 740 741 743
713 711 710 709 707 705 703 702 700 699 697 695 693 691 689 688 686 684 682 681 679 678 676 675 674 673 672 670 669 669 668 668 667 667 666 666 666 667 667 668 667 667 668 669 669 669 668 667 666 667 668 668 669 670 671 673 674 676 678 679 681 683 684 686 689 691 694 698 701 703 706 708 711 714 716 718 721 724 726 729 731 734 737 739 740 742
713 711 710 709 707 705 703 702 700 699 697 695 693 691 689 687 685 684 682 680 679 677 675 674 673 671 670 669 669 668 668 667 667 666 666 665 666 666 666 667 667 668 668 669 669 669 668 667 667 667 668 668 669 669 670 672 674 676 678 679 680 682 684 686 688 690 693 696 700 703 705 707 710 713 715 718 720 723 725 727 730 732 734 737 739 741
713 711 710 709 707 705 703 702 700 699 698 696 694 691 689 687 685 683 682 680 679 677 675 674 672 670 669 669 668 668 667 667 666 665 665 664 665 665 666 666 667 668 668 668 669 669 669 667 667 667 668 669 669 669 670 671 673 675 677 678 679 681 683 685 687 689 691 694 698 701 704 707 709 712 714 717 719 722 725 727 728 730 733 735 738 741
713 711 709 709 707 705 703 701 700 699 698 697 694 692 689 687 685 683 681 679 678 677 676 674 672 670 669 668 667 667 666 666 665 665 664 664 664 664 665 665 666 666 667 667 668 669 669 668 667 667 669 669 668 668 669 670 672 674 676 677 679 680 682 684 686 688 690 693 697 700 703 706 709 712 714 716 718 721 724 726 727 729 731 734 736 739
713 711 709 708 707 706 704 701 699 699 698 697 695 693 691 689 686 684 681 679 678 677 676 674 672 670 668 667 667 666 666 666 665 664 663 663 663 663 664 664 665 665 666 667 668 669 669 668 667 667 668 667 667 667 668 669 671 672 674 676 678 679 681 684 685 688 690 693 696 699 703 706 709 711 713 715 717 719 722 724 726 728 730 732 735 737
713 711 709 708 707 705 704 702 700 699 698 696 694 693 691 690 688 686 683 680 678 677 675 674 672 671 669 667 666 666 665 665 664 663 662 662 662 663 663 663 664 665 666 667 668 669 669 668 667 667 667 666 665 666 667 668 670 671 673 675 677 679 681 683 685 688 690 693 695 699 702 705 708 710 712 714 716 718 720 723 725 727 729 731 734 736
713 711 709 708 707 705 704 702 700 699 698 696 694 692 691 690 689 687 685 682 680 678 676 674 672 670 669 667 666 665 665 664 663 662 662 662 662 662 662 663 664 665 666 667 667 668 669 668 667 667 666 664 664 665 666 668 669 671 672 674 675 678 680 682 685 687 690 692 695 698 701 704 707 709 711 714 715 717 719 721 724 726 729 731 733 735
713 711 709 708 707 705 704 702 701 699 698 696 695 693 692 690 689 688 686 684 682 679 677 674 672 670 668 667 666 665 664 664 663 662 662 661 661 661 662 663 664 666 666 666 667 667 667 666 666 666 665 664 664 665 666 668 669 670 670 672 674 676 679 681 684 686 689 692 694 698 701 703 706 708 710 713 715 717 719 721 723 725 728 730 732 734
712 711 709 708 707 705 704 703 701 700 699 697 696 694 693 691 689 688 686 684 682 680 678 676 673 670 668 666 666 665 664 663 662 662 661 661 661 661 662 664 665 665 665 665 665 666 665 665 665 665 665 664 664 665 666 668 668 669 669 671 673 675 677 679 682 685 688 691 694 697 700 702 705 707 709 712 714 716 719 720 723 724 727 729 730 732
712 711 709 708 707 705 704 703 702 700 699 698 696 695 693 692 690 689 687 684 683 681 679 676 674 670 668 667 666 664 663 662 662 662 661 661 660 661 662 664 665 665 664 664 664 664 664 665 665 665 664 665 665 666 666 666 667 668 669 671 672 674 676 678 681 684 687 690 694 697 699 702 704 706 709 711 713 716 718 720 721 723 725 727 729 731
713 711 709 708 707 705 704 704 703 701 699 698 697 695 694 692 691 689 688 685 684 682 680 678 675 671 668 666 664 664 663 663 662 662 661 660 660 660 662 664 664 664 664 663 663 663 664 664 665 665 664 665 666 666 665 665 665 667 669 670 671 673 675 678 680 683 686 690 694 696 699 701 703 705 707 709 712 715 717 719 720 722 723 725 727 729
713 711 710 708 707 706 705 704 703 702 700 698 697 695 694 693 692 690 688 686 685 683 682 680 678 674 670 667 665 665 664 664 664 663 662 661 660 660 662 663 663 663 662 662 662 663 663 664 665 665 665 665 666 665 665 665 665 666 668 669 671 673 675 678 680 683 686 690 693 696 698 700 702 704 706 708 710 713 715 717 719 721 722 724 726 728
713 711 710 709 707 706 705 704 703 702 700 699 697 695 694 693 692 690 689 687 686 684 683 682 680 677 674 671 669 667 667 667 666 664 663 662 661 660 661 662 661 661 661 661 662 663 663 664 665 665 666 666 666 665 665 665 665 666 667 669 670 672 675 677 680 683 686 689 692 695 697 699 702 704 705 707 709 711 713 715 717 719 721 724 725 728
713 712 710 709 708 706 705 704 703 702 700 699 697 695 694 693 691 690 689 687 686 685 684 683 681 679 677 674 672 670 670 669 669 667 665 663 661 661 660 660 660 660 660 661 662 663 664 664 665 666 666 666 666 666 665 665 665 666 667 669 671 673 675 677 679 682 685 688 691 694 696 699 701 703 705 706 708 710 712 714 716 718 721 723 725 727
713 712 710 709 708 707 705 704 703 702 701 699 698 696 694 693 691 689 688 687 686 686 684 683 682 680 679 676 674 672 671 671 670 668 666 664 662 660 659 659 658 658 659 661 662 662 663 664 665 665 665 666 666 666 666 665 665 666 668 669 671 673 675 678 680 682 684 687 690 693 695 698 700 702 704 706 708 709 711 713 715 717 720 722 724 727
713 711 710 709 709 707 705 704 703 703 701 700 698 696 694 693 691 689 688 687 686 685 684 683 682 680 679 677 674 673 672 672 671 670 667 664 661 659 658 657 657 658 659 660 661 661 662 664 664 665 665 666 667 667 666 665 665 667 669 670 672 674 675 678 680 682 684 687 689 691 694 697 699 701 703 705 707 709 710 712 714 717 719 722 724 726
713 711 710 709 708 707 705 704 703 702 701 700 698 697 695 693 691 689 689 688 687 686 684 683 681 680 679 676 674 672 672 672 672 670 668 664 661 658 657 656 656 657 658 659 660 661 662 664 664 665 665 666 667 667 666 666 666 668 669 671 672 674 676 678 680 682 684 686 688 691 693 696 698 700 703 704 707 709 710 712 714 717 719 721 724 726
712 710 709 709 708 706 705 704 703 702 701 699 698 697 696 694 692 690 689 688 687 686 684 682 680 678 676 674 672 671 670 670 670 669 667 664 660 657 656 656 656 657 658 659 659 661 662 663 664 665 665 666 666 667 666 667 667 669 670 671 673 674 676 678 680 682 684 686 688 690 693 695 697 699 702 704 706 709 711 713 715 717 719 721 724 726
711 710 709 708 707 706 704 703 702 701 700 699 698 697 696 694 693 691 690 689 688 686 684 682 680 677 675 673 671 669 668 668 668 667 665 662 659 657 657 656 656 657 657 658 659 660 662 663 664 664 665 666 667 667 668 668 668 669 671 672 673 675 676 677 679 681 683 686 688 690 693 694 697 699 701 704 706 708 711 713 715 717 719 721 723 725
710 709 708 707 706 705 704 703 701 700 700 699 698 697 695 694 692 691 690 689 688 686 685 683 680 677 674 672 670 668 667 667 667 666 664 662 659 658 658 658 657 657 657 657 658 660 661 662 663 664 665 666 667 669 669 669 669 670 672 674 675 675 676 677 678 680 683 685 688 690 693 694 696 699 701 703 705 708 710 713 715 717 719 721 723 725
709 708 707 706 705 704 703 701 701 700 699 699 697 696 695 694 692 691 690 689 688 687 685 684 681 678 675 673 670 668 667 667 666 665 664 663 661 659 659 659 658 658 657 657 658 660 661 662 664 664 665 667 668 669 671 671 671 673 674 675 676 677 677 677 678 680 683 685 688 690 692 694 696 698 700 703 705 708 710 713 715 717 719 721 723 725
708 707 706 704 704 702 701 700 699 699 698 698 697 696 694 693 692 691 689 689 688 687 686 684 682 679 675 673 671 670 669 668 667 666 665 664 663 661 660 659 659 658 658 658 658 660 661 663 664 665 667 668 669 670 672 672 673 674 676 677 678 678 678 678 679 681 683 686 688 690 692 694 696 698 700 702 704 707 710 712 714 716 718 720 723 724
707 706 704 704 702 701 700 699 698 698 697 697 696 695 694 693 692 691 690 689 688 688 686 685 683 680 677 675 673 672 670 670 669 668 667 666 664 663 661 661 660 659 659 658 659 660 662 664 665 666 668 668 669 671 672 673 674 676 678 679 679 679 679 679 679 681 684 686 688 689 691 693 695 697 699 702 704 707 709 712 714 716 718 720 722 724
706 705 704 703 701 700 699 698 697 697 696 695 695 694 694 693 692 691 690 689 689 688 687 685 684 682 680 678 675 673 671 671 670 669 668 667 666 664 663 662 662 661 660 659 660 661 664 664 666 667 668 668 669 670 672 674 676 678 680 681 681 680 679 679 680 681 683 685 687 689 691 693 695 697 699 702 704 706 709 711 714 716 718 719 721 722
705 704 703 702 701 699 699 697 696 696 695 695 694 694 693 693 692 691 691 690 689 688 687 686 685 684 682 680 676 673 671 671 670 670 669 669 668 666 664 663 663 662 661 661 661 663 664 665 665 666 667 667 668 669 671 674 676 679 682 683 683 682 680 680 680 681 683 685 686 688 690 693 695 697 699 701 704 706 709 711 713 715 717 718 720 721
704 703 702 701 700 699 698 697 696 695 694 694 694 693 693 692 692 691 690 690 689 689 688 687 685 684 683 682 679 675 672 671 671 671 671 671 670 669 667 665 664 663 663 662 663 663 664 665 665 666 666 667 668 669 671 673 676 679 683 684 684 683 682 681 681 682 683 684 686 688 690 692 694 697 699 701 704 706 708 710 712 714 716 718 719 721
704 703 702 701 700 699 698 697 696 695 694 694 693 693 692 692 691 691 690 690 689 689 688 687 686 685 684 683 681 679 675 674 673 673 673 673 672 670 669 667 666 664 664 664 664 663 663 664 665 666 666 667 668 669 671 674 676 679 682 684 684 683 682 682 682 682 683 685 686 688 690 692 694 696 699 701 704 706 708 709 711 713 715 717 719 720
704 703 702 701 699 699 698 696 695 695 694 693 693 692 691 691 690 690 689 689 689 688 688 687 686 685 684 683 682 680 678 676 675 674 674 674 673 671 670 669 667 666 665 664 664 664 664 664 664 665 666 667 668 670 673 674 677 679 681 683 684 683 682 682 682 682 684 685 687 689 690 692 694 696 698 700 703 706 708 709 711 713 714 716 718 719
704 703 702 701 699 699 697 696 695 694 694 693 692 691 691 690 689 689 689 688 688 687 687 686 685 685 684 683 682 680 678 676 675 675 674 674 674 672 670 669 668 667 666 665 664 664 664 664 664 665 666 668 670 672 674 676 678 679 681 683 683 683 682 682 682 682 684 685 687 689 690 692 694 696 698 700 703 705 707 709 710 712 714 715 717 719
704 703 702 701 700 699 697 696 695 694 693 692 692 691 690 689 689 688 688 687 687 686 686 685 685 684 684 683 681 679 678 676 675 675 674 674 674 673 671 670 669 668 667 666 665 665 665 665 665 665 666 668 671 673 674 677 679 681 682 683 683 683 682 682 682 682 684 685 687 689 691 693 695 697 699 701 703 705 707 709 711 712 714 715 717 718
704 703 702 701 700 699 698 696 695 694 693 692 691 690 689 689 688 688 687 686 686 685 684 684 684 683 682 682 681 679 677 676 675 675 674 674 674 673 672 671 670 669 669 668 667 666 666 666 665 665 666 668 670 673 675 677 680 682 683 684 684 683 682 681 682 682 684 685 687 689 691 693 695 697 699 701 704 705 707 709 710 712 714 716 717 718
705 704 703 702 700 699 698 697 695 694 693 692 691 690 689 688 688 687 686 685 684 684 683 683 682 681 681 680 679 678 677 676 675 674 674 674 673 673 672 671 670 670 670 670 669 668 667 666 666 666 666 667 669 672 674 678 680 683 684 684 684 683 682 682 682 682 684 686 688 690 691 693 695 697 699 701 704 706 707 709 710 713 715 716 718 719
706 704 703 702 701 700 699 697 696 695 694 692 691 690 689 688 687 686 685 684 683 683 682 681 680 680 679 679 678 677 676 675 674 673 673 673 672 672 672 670 670 670 670 670 670 669 669 667 666 665 666 667 669 671 673 677 680 682 683 683 683 683 682 682 682 683 684 687 689 691 692 694 695 697 699 701 703 705 707 709 711 713 715 717 718 720
706 705 704 703 702 700 699 698 696 695 694 692 691 690 689 687 686 685 684 684 683 682 681 680 679 679 678 677 676 675 675 674 673 673 672 672 671 671 671 670 670 669 670 670 670 669 669 668 666 665 666 667 669 671 674 676 679 680 681 682 683 683 682 682 682 683 685 688 690 692 693 694 696 698 699 701 703 704 706 708 710 712 714 716 718 721
707 706 705 704 702 701 700 699 697 695 694 692 691 690 689 687 686 685 684 683 682 681 681 680 679 678 677 676 675 675 674 674 673 673 672 671 671 670 670 670 669 669 669 669 669 669 669 668 667 666 666 666 668 670 673 675 677 678 679 680 682 683 682 682 683 684 686 689 691 693 694 695 697 698 700 702 703 704 706 708 710 712 713 715 717 721
708 707 705 704 703 701 700 699 697 696 694 693 691 690 689 687 686 685 684 683 682 681 680 679 679 678 677 676 675 675 674 674 674 673 672 671 671 670 670 669 669 669 669 669 669 669 668 668 667 666 666 666 667 669 671 673 675 675 676 678 679 681 682 682 683 685 687 689 691 693 695 696 698 699 701 703 704 706 707 709 711 713 714 715 716 719
709 707 706 704 703 701 700 699 697 696 694 693 692 690 689 688 687 685 684 683 682 681 680 679 679 678 677 676 676 675 674 674 673 673 672 671 670 670 669 669 669 669 669 669 668 668 668 667 667 666 666 666 667 668 670 672 673 674 674 676 677 679 681 684 685 686 688 690 693 694 696 698 699 701 702 704 706 707 709 710 712 713 715 716 718 719
709 708 706 705 704 702 700 699 698 696 694 693 692 691 690 689 687 686 685 684 683 681 680 679 679 678 677 677 676 675 674 674 673 672 672 671 670 669 669 669 669 669 669 669 668 668 668 667 667 666 667 667 667 668 669 671 673 674 674 675 675 678 682 686 688 688 689 691 694 695 697 699 700 701 703 704 706 708 710 711 713 714 716 718 719 722
710 709 707 705 704 702 701 699 698 697 695 694 693 692 690 689 688 687 686 685 683 682 681 680 679 679 678 677 676 675 674 674 673 672 671 671 670 670 669 669 669 669 669 669 669 669 668 668 667 667 668 668 668 668 669 671 673 674 676 676 676 677 680 685 688 689 691 693 694 696 698 699 701 702 704 705 707 709 711 712 714 715 717 719 720 723
711 709 707 706 704 703 701 700 699 697 696 695 694 692 691 690 689 688 687 686 684 683 682 681 680 679 679 678 677 676 675 674 673 672 671 671 670 670 669 670 670 670 670 670 670 669 669 669 669 669 669 669 670 670 671 672 674 676 677 678 678 679 682 685 687 689 691 693 695 697 699 700 701 703 705 707 709 711 712 714 715 716 718 719 721 723
711 709 708 706 705 704 702 701 699 698 697 696 694 693 692 691 690 689 688 687 685 684 683 682 681 681 680 679 679 677 676 675 674 673 672 671 671 670 670 670 670 670 670 670 669 669 670 670 670 671 671 672 673 674 674 675 676 677 679 679 680 682 684 687 689 690 691 693 695 698 699 701 702 704 707 709 711 713 714 715 716 718 719 721 722 724
712 710 709 708 706 704 703 702 700 699 698 697 695 694 693 692 691 690 689 688 687 686 684 684 683 682 682 681 680 679 678 677 676 674 674 673 672 672 671 671 671 671 670 670 670 670 671 671 672 672 673 674 675 676 677 677 678 679 679 680 681 683 686 689 692 693 694 694 696 698 700 701 704 707 710 712 713 715 717 718 719 720 721 722 724 725
713 712 710 709 707 706 704 703 702 700 699 698 697 695 694 693 692 691 690 689 688 687 686 685 684 684 683 682 682 681 680 679 678 676 675 674 674 673 673 673 672 672 671 671 671 671 672 673 673 674 675 675 677 678 679 680 680 680 681 681 682 684 687 690 693 694 696 697 698 699 701 702 704 708 711 714 716 718 719 721 722 723 724 725 726 727
714 713 712 710 709 707 706 704 703 702 700 699 698 697 696 694 694 693 692 691 690 689 688 687 686 685 684 684 683 682 681 680 679 678 677 676 675 674 674 674 674 674 673 672 672 672 673 674 675 676 677 678 679 680 681 682 682 683 683 683 684 685 688 691 694 695 697 699 700 702 703 704 706 708 711 715 718 721 722 724 726 727 728 728 729 729
716 714 713 712 710 709 707 706 704 703 702 701 699 698 697 696 695 694 693 692 691 690 690 689 688 687 686 685 684 683 682 681 680 679 678 677 677 676 675 675 675 675 674 674 674 674 675 676 677 678 679 680 681 682 683 684 685 685 686 686 686 687 689 692 694 696 698 700 702 704 706 707 709 710 712 715 719 723 725 727 729 730 731 731 731 732
717 716 714 713 712 710 709 708 706 705 704 703 701 700 699 698 696 695 694 694 693 692 691 690 690 689 688 687 686 685 684 683 682 681 680 679 678 677 676 676 676 676 675 675 675 676 677 679 680 681 682 683 684 684 685 686 687 687 688 689 689 689 691 693 695 697 699 701 703 705 707 709 711 713 714 716 720 724 727 730 732 733 734 734 734 735